King Salmon, AK

12:58 AM AKDT on August 29, 2016 (GMT -0800)
Port Heiden

Weather History for PAPH - January, 2014

Change the Weather History Date:

Friday, January 10, 2014

  Actual Average Record
Temperature  
Mean Temperature 29 °F -  
Max Temperature 35 °F 28 °F 44 °F (2003)
Min Temperature 23 °F 18 °F -16 °F (2008)
Degree Days  
Heating Degree Days 36    
Moisture  
Dew Point 20 °F    
Average Humidity 68    
Maximum Humidity 80    
Minimum Humidity 50    
Precipitation  
Precipitation 0.00 in - - ()
Sea Level Pressure  
Sea Level Pressure 29.39 in    
Wind  
Wind Speed 7 mph (SE)    
Max Wind Speed 10 mph    
Max Gust Speed -    
Visibility 10 miles    
Events      
Averages and records for this station are not official NWS values.
T = Trace of Precipitation, MM = Missing Value Source: NWS Daily Summary

Daily Weather History Graph

Daily Weather History Graph

Search for Another Location

Airport or City:

Trip Planner

Search our weather history database for the weather conditions in past years. The results will help you decide how hot, cold, wet, or windy it might be!

Date:

Astronomy

Jan. 10, 2014 Rise Set
Actual Time 10:06 AM AKST 5:18 PM AKST
Civil Twilight 9:19 AM AKST 6:05 PM AKST
Nautical Twilight 8:29 AM AKST 6:55 PM AKST
Astronomical Twilight 7:43 AM AKST 7:41 PM AKST
Moon 1:46 PM AKST (1/10) 5:06 AM AKST (1/10)
Length of Visible Light 8h 46m
Length of Day
7h 12m
Waxing Gibbous, 76% of the Moon is Illuminated
Jan 10
Waxing Gibbous
Jan 15
Full
Jan 23
Last Quarter
Jan 30
New
Feb 6
First Quarter

Hourly Weather History & Observations

Time (AKST) Temp. Windchill Dew Point Humidity Pressure Visibility Wind Dir Wind Speed Gust Speed Precip Events Conditions
12:16 AM 28.4 °F 19.7 °F 17.6 °F 64% 29.46 in 10.0 mi SSE 9.2 mph - N/A   Clear
12:36 AM 28.4 °F 19.7 °F 17.6 °F 64% 29.47 in 10.0 mi SSE 9.2 mph - N/A   Clear
12:56 AM 28.4 °F 19.7 °F 17.6 °F 64% 29.47 in 10.0 mi SSE 9.2 mph - N/A   Clear
1:16 AM 26.6 °F 18.2 °F 17.6 °F 69% 29.47 in 10.0 mi SSE 8.1 mph - N/A   Clear
1:36 AM 26.6 °F 18.2 °F 17.6 °F 69% 29.46 in 10.0 mi SE 8.1 mph - N/A   Clear
1:56 AM 26.6 °F 18.2 °F 15.8 °F 64% 29.46 in 10.0 mi SE 8.1 mph - N/A   Clear
2:16 AM 26.6 °F 19.1 °F 15.8 °F 64% 29.46 in 10.0 mi SSE 6.9 mph - N/A   Clear
2:36 AM 24.8 °F 17.9 °F 15.8 °F 69% 29.46 in 10.0 mi SE 5.8 mph - N/A   Clear
2:56 AM 24.8 °F 16.9 °F 14.0 °F 64% 29.46 in 10.0 mi SE 6.9 mph - N/A   Clear
3:16 AM 24.8 °F 17.9 °F 15.8 °F 69% 29.46 in 10.0 mi SE 5.8 mph - N/A   Clear
3:36 AM 24.8 °F 17.9 °F 15.8 °F 69% 29.46 in 10.0 mi SE 5.8 mph - N/A   Clear
3:56 AM 24.8 °F 17.9 °F 15.8 °F 69% 29.45 in 10.0 mi SE 5.8 mph - N/A   Clear
4:16 AM 24.8 °F 17.9 °F 15.8 °F 69% 29.45 in 10.0 mi SE 5.8 mph - N/A   Clear
4:36 AM 24.8 °F 17.9 °F 15.8 °F 69% 29.45 in 10.0 mi SE 5.8 mph - N/A   Clear
4:56 AM 24.8 °F 17.9 °F 15.8 °F 69% 29.46 in 10.0 mi ESE 5.8 mph - N/A   Clear
5:16 AM 26.6 °F 19.1 °F 15.8 °F 64% 29.45 in 10.0 mi SE 6.9 mph - N/A   Clear
5:36 AM 26.6 °F 19.1 °F 15.8 °F 64% 29.45 in 10.0 mi ESE 6.9 mph - N/A   Clear
5:56 AM 26.6 °F 20.0 °F 15.8 °F 64% 29.44 in 10.0 mi ESE 5.8 mph - N/A   Clear
6:16 AM 26.6 °F 20.0 °F 15.8 °F 64% 29.44 in 10.0 mi SE 5.8 mph - N/A   Clear
6:36 AM 24.8 °F 16.1 °F 15.8 °F 69% 29.44 in 10.0 mi SE 8.1 mph - N/A   Clear
6:56 AM 26.6 °F 18.2 °F 15.8 °F 64% 29.43 in 10.0 mi ESE 8.1 mph - N/A   Clear
7:16 AM 24.8 °F 19.1 °F 15.8 °F 69% 29.43 in 10.0 mi ESE 4.6 mph - N/A   Clear
7:36 AM 26.6 °F 20.0 °F 17.6 °F 69% 29.43 in 10.0 mi SE 5.8 mph - N/A   Clear
7:56 AM 26.6 °F 20.0 °F 17.6 °F 69% 29.42 in 10.0 mi ESE 5.8 mph - N/A   Clear
8:16 AM 26.6 °F 20.0 °F 17.6 °F 69% 29.43 in 10.0 mi ESE 5.8 mph - N/A   Clear
8:36 AM 26.6 °F 19.1 °F 17.6 °F 69% 29.42 in 10.0 mi ESE 6.9 mph - N/A   Clear
8:56 AM 26.6 °F 19.1 °F 17.6 °F 69% 29.42 in 10.0 mi SE 6.9 mph - N/A   Mostly Cloudy
9:16 AM 26.6 °F 18.2 °F 17.6 °F 69% 29.43 in 10.0 mi SSE 8.1 mph - N/A   Mostly Cloudy
9:36 AM 28.4 °F 19.7 °F 19.4 °F 69% 29.42 in 10.0 mi SSE 9.2 mph - N/A   Partly Cloudy
9:56 AM 30.2 °F 21.9 °F 19.4 °F 64% 29.43 in 10.0 mi SSE 9.2 mph - N/A   Clear
10:16 AM 30.2 °F 21.3 °F 21.2 °F 69% 29.43 in 10.0 mi SSE 10.4 mph - N/A   Scattered Clouds
10:36 AM 30.2 °F 21.9 °F 23.0 °F 75% 29.43 in 10.0 mi SE 9.2 mph - N/A   Mostly Cloudy
10:56 AM 32.0 °F 24.8 °F 21.2 °F 64% 29.42 in 10.0 mi SSE 8.1 mph - N/A   Mostly Cloudy
11:16 AM 32.0 °F 24.2 °F 21.2 °F 64% 29.43 in 10.0 mi SSE 9.2 mph - N/A   Mostly Cloudy
11:36 AM 33.8 °F 26.4 °F 23.0 °F 65% 29.42 in 10.0 mi SSE 9.2 mph - N/A   Overcast
11:56 AM 33.8 °F 26.4 °F 23.0 °F 65% 29.42 in 10.0 mi SSE 9.2 mph - N/A   Overcast
12:16 PM 33.8 °F 26.4 °F 24.8 °F 70% 29.42 in 10.0 mi SSE 9.2 mph - N/A   Overcast
12:36 PM 33.8 °F 26.4 °F 24.8 °F 70% 29.41 in 10.0 mi SSE 9.2 mph - N/A   Overcast
12:56 PM 33.8 °F 26.4 °F 24.8 °F 70% 29.41 in 10.0 mi SSE 9.2 mph - N/A   Mostly Cloudy
1:16 PM 33.8 °F 27.7 °F 24.8 °F 70% 29.41 in 10.0 mi SSE 6.9 mph - N/A   Scattered Clouds
1:36 PM 33.8 °F 27.0 °F 24.8 °F 70% 29.40 in 10.0 mi SSE 8.1 mph - N/A   Mostly Cloudy
1:56 PM 35.6 °F 30.7 °F 24.8 °F 65% 29.39 in 10.0 mi SSE 5.8 mph - N/A   Mostly Cloudy
2:16 PM 35.6 °F 30.7 °F 26.6 °F 70% 29.39 in 10.0 mi SSE 5.8 mph - N/A   Mostly Cloudy
2:36 PM 35.6 °F 31.7 °F 26.6 °F 70% 29.38 in 10.0 mi SSE 4.6 mph - N/A   Partly Cloudy
2:56 PM 35.6 °F - 26.6 °F 70% 29.37 in 10.0 mi Calm Calm - N/A   Clear
3:16 PM 35.6 °F - 26.6 °F 70% 29.37 in 10.0 mi Calm Calm - N/A   Clear
3:36 PM 35.6 °F - 26.6 °F 70% 29.37 in 10.0 mi Calm Calm - N/A   Clear
3:56 PM 33.8 °F 30.8 °F 24.8 °F 70% 29.38 in 10.0 mi North 3.5 mph - N/A   Scattered Clouds
4:16 PM 30.2 °F 25.4 °F 23.0 °F 75% 29.38 in 10.0 mi NNE 4.6 mph - N/A   Partly Cloudy
4:36 PM 33.8 °F - 24.8 °F 70% 29.38 in 10.0 mi Calm Calm - N/A   Clear
4:56 PM 32.0 °F - 24.8 °F 75% 29.38 in 10.0 mi Calm Calm - N/A   Clear
5:16 PM 30.2 °F 26.7 °F 21.2 °F 69% 29.37 in 10.0 mi ENE 3.5 mph - N/A   Clear
5:36 PM 30.2 °F 26.7 °F 21.2 °F 69% 29.37 in 10.0 mi East 3.5 mph - N/A   Scattered Clouds
5:56 PM 28.4 °F - 21.2 °F 74% 29.37 in 10.0 mi Calm Calm - N/A   Overcast
6:16 PM 30.2 °F - 21.2 °F 69% 29.35 in 10.0 mi Calm Calm - N/A   Scattered Clouds
6:36 PM 30.2 °F 26.7 °F 23.0 °F 75% 29.35 in 10.0 mi SE 3.5 mph - N/A   Mostly Cloudy
6:56 PM 28.4 °F 23.3 °F 21.2 °F 74% 29.34 in 10.0 mi East 4.6 mph - N/A   Mostly Cloudy
7:16 PM 26.6 °F 19.1 °F 21.2 °F 80% 29.33 in 10.0 mi East 6.9 mph - N/A   Partly Cloudy
7:36 PM 26.6 °F 21.2 °F 19.4 °F 74% 29.33 in 10.0 mi East 4.6 mph - N/A   Clear
7:56 PM 26.6 °F 21.2 °F 17.6 °F 69% 29.32 in 10.0 mi East 4.6 mph - N/A   Clear
8:16 PM 26.6 °F 21.2 °F 17.6 °F 69% 29.31 in 10.0 mi East 4.6 mph - N/A   Clear
8:36 PM 26.6 °F - 17.6 °F 69% 29.31 in 10.0 mi Calm Calm - N/A   Clear
8:56 PM 26.6 °F - 17.6 °F 69% 29.31 in 10.0 mi Calm Calm - N/A   Scattered Clouds
9:16 PM 26.6 °F 22.6 °F 17.6 °F 69% 29.31 in 10.0 mi SE 3.5 mph - N/A   Scattered Clouds
9:36 PM 24.8 °F 19.1 °F 17.6 °F 74% 29.30 in 10.0 mi ESE 4.6 mph - N/A   Partly Cloudy
9:56 PM 26.6 °F 20.0 °F 17.6 °F 69% 29.30 in 10.0 mi East 5.8 mph - N/A   Clear
10:16 PM 24.8 °F 16.9 °F 15.8 °F 69% 29.28 in 10.0 mi East 6.9 mph - N/A   Clear
10:36 PM 24.8 °F 16.9 °F 17.6 °F 74% 29.28 in 10.0 mi ENE 6.9 mph - N/A   Clear
10:56 PM 23.0 °F 15.8 °F 14.0 °F 68% 29.26 in 10.0 mi East 5.8 mph - N/A   Clear
11:16 PM 28.4 °F 20.4 °F 17.6 °F 64% 29.25 in 10.0 mi East 8.1 mph - N/A   Clear
11:36 PM 28.4 °F 22.2 °F 17.6 °F 64% 29.25 in 10.0 mi East 5.8 mph - N/A   Clear
11:56 PM 28.4 °F 19.7 °F 19.4 °F 69% 29.24 in 10.0 mi East 9.2 mph - N/A   Clear